Weather History for Charlotte, NC

Change the Weather History Date:

Friday, October 5, 2012

  Actual Average Record
Temperature  
Mean Temperature 68 °F 64 °F  
Max Temperature 81 °F 75 °F 97 °F (1954)
Min Temperature 55 °F 53 °F 38 °F (1974)
Degree Days  
Heating Degree Days 0 3  
Month to date heating degree days 1 15  
Since 1 July heating degree days 7 38  
Cooling Degree Days 3 2  
Month to date cooling degree days 27 13  
Year to date cooling degree days 1782 1488  
Growing Degree Days 18 (Base 50)    
Moisture  
Dew Point 57 °F    
Average Humidity 68    
Maximum Humidity 93    
Minimum Humidity 42    
Precipitation  
Precipitation 0.00 in 0.12 in 1.16 in (1960)
Month to date precipitation 0.47 0.59  
Year to date precipitation 28.46 32.43  
Snow  
Snow 0.00 in 0.00 in 0.00 in ()
Month to date snowfall 0.0 0.0  
Since 1 July snowfall 0.0 0.0  
Since 1 September snowfall 0.0 0.0  
Snow Depth 0.00 in    
Sea Level Pressure  
Sea Level Pressure 30.12 in    
Wind  
Wind Speed 4 mph (West)    
Max Wind Speed 12 mph    
Max Gust Speed 13 mph    
Visibility 10 miles    
Events      
T = Trace of Precipitation, MM = Missing Value Source: NWS Daily Summary

Daily Weather History Graph

Daily Weather History Graph

Search for Another Location

Airport:

Trip Planner

Search our weather history database for the weather conditions in past years. The results will help you decide how hot, cold, wet, or windy it might be!

Date:

Astronomy

Oct. 05, 2012 Rise Set
Actual Time 7:22 AM EDT 7:01 PM EDT
Civil Twilight 6:56 AM EDT 7:26 PM EDT
Nautical Twilight 6:27 AM EDT 7:56 PM EDT
Astronomical Twilight 5:57 AM EDT 8:25 PM EDT
Moon 10:34 PM EDT (10/5) 12:18 PM EDT (10/5)
Length of Visible Light 12h 29m
Length of Day
11h 39m
Waning Gibbous, 74% of the Moon is Illuminated
Oct 5
Waning Gibbous
Oct 8
Last Quarter
Oct 15
New
Oct 21
First Quarter
Oct 29
Full

Hourly Weather History & Observations

Time (EDT) Temp. Heat Index Dew Point Humidity Pressure Visibility Wind Dir Wind Speed Gust Speed Precip Events Conditions
12:52 AM 62.1 °F - 60.1 °F 93% 30.20 in 10.0 mi NNW 4.6 mph - N/A   Mostly Cloudy
1:52 AM 63.0 °F - 60.1 °F 90% 30.19 in 10.0 mi North 5.8 mph - N/A   Mostly Cloudy
2:52 AM 62.1 °F - 57.9 °F 86% 30.18 in 10.0 mi North 4.6 mph - N/A   Mostly Cloudy
3:52 AM 60.8 °F - 57.2 °F 88% 30.19 in 10.0 mi NNW 3.5 mph - N/A   Mostly Cloudy
4:52 AM 57.9 °F - 55.9 °F 93% 30.17 in 10.0 mi NNW 3.5 mph - N/A   Mostly Cloudy
5:52 AM 57.0 °F - 54.0 °F 89% 30.18 in 10.0 mi Calm Calm - N/A   Scattered Clouds
6:52 AM 55.9 °F - 53.1 °F 90% 30.19 in 9.0 mi Calm Calm - N/A   Partly Cloudy
7:52 AM 55.9 °F - 54.0 °F 93% 30.20 in 8.0 mi Calm Calm - N/A   Partly Cloudy
8:52 AM 63.0 °F - 57.0 °F 81% 30.20 in 9.0 mi NW 3.5 mph - N/A   Clear
9:52 AM 69.1 °F - 57.9 °F 68% 30.20 in 10.0 mi North 5.8 mph - N/A   Partly Cloudy
10:52 AM 73.9 °F - 57.9 °F 57% 30.19 in 10.0 mi NNE 3.5 mph - N/A   Clear
11:52 AM 75.9 °F - 53.1 °F 45% 30.17 in 10.0 mi Variable 3.5 mph - N/A   Clear
12:52 PM 78.1 °F - 54.0 °F 43% 30.15 in 10.0 mi Calm Calm - N/A   Partly Cloudy
1:52 PM 80.1 °F 80.2 °F 55.9 °F 43% 30.12 in 10.0 mi West 4.6 mph - N/A   Scattered Clouds
2:52 PM 81.0 °F 80.7 °F 55.0 °F 41% 30.09 in 10.0 mi South 6.9 mph - N/A   Scattered Clouds
3:52 PM 81.0 °F 80.7 °F 55.0 °F 41% 30.06 in 10.0 mi West 4.6 mph - N/A   Scattered Clouds
4:52 PM 80.1 °F 80.1 °F 55.0 °F 42% 30.05 in 10.0 mi Variable 4.6 mph - N/A   Scattered Clouds
5:52 PM 78.1 °F - 55.0 °F 45% 30.03 in 10.0 mi South 6.9 mph - N/A   Scattered Clouds
6:52 PM 73.9 °F - 57.9 °F 57% 30.03 in 10.0 mi SSW 3.5 mph - N/A   Partly Cloudy
7:52 PM 70.0 °F - 59.0 °F 68% 30.04 in 10.0 mi South 6.9 mph - N/A   Partly Cloudy
8:52 PM 69.1 °F - 57.9 °F 68% 30.04 in 10.0 mi South 5.8 mph - N/A   Clear
9:52 PM 66.0 °F - 57.9 °F 75% 30.04 in 10.0 mi South 3.5 mph - N/A   Clear
10:52 PM 64.0 °F - 57.9 °F 80% 30.04 in 10.0 mi South 4.6 mph - N/A   Clear
11:52 PM 63.0 °F - 57.9 °F 84% 30.03 in 10.0 mi SSE 3.5 mph - N/A   Clear